Year,Month,Day,Hour,Minute,Value (Times are PST for temperature in C)
2023,03,30,00,00,4.80
2023,03,30,00,01,4.80
2023,03,30,00,02,4.80
2023,03,30,00,03,4.80
2023,03,30,00,04,4.70
2023,03,30,00,05,4.70
2023,03,30,00,06,4.70
2023,03,30,00,07,4.60
2023,03,30,00,08,4.60
2023,03,30,00,09,4.60
2023,03,30,00,10,4.50
2023,03,30,00,11,4.50
2023,03,30,00,12,4.50
2023,03,30,00,13,4.50
2023,03,30,00,14,4.50
2023,03,30,00,15,4.50
2023,03,30,00,16,4.50
2023,03,30,00,17,4.40
2023,03,30,00,18,4.40
2023,03,30,00,19,4.40
2023,03,30,00,20,4.40
2023,03,30,00,21,4.30
2023,03,30,00,22,4.30
2023,03,30,00,23,4.30
2023,03,30,00,24,4.30
2023,03,30,00,25,4.30
2023,03,30,00,26,4.30
2023,03,30,00,27,4.30
2023,03,30,00,28,4.40
2023,03,30,00,29,4.40
2023,03,30,00,30,4.40
2023,03,30,00,31,4.40
2023,03,30,00,32,4.30
2023,03,30,00,33,4.40
2023,03,30,00,34,4.30
2023,03,30,00,35,4.30
2023,03,30,00,36,4.30
2023,03,30,00,37,4.30
2023,03,30,00,38,4.30
2023,03,30,00,39,4.30
2023,03,30,00,40,4.30
2023,03,30,00,41,4.20
2023,03,30,00,42,4.20
2023,03,30,00,43,4.20
2023,03,30,00,44,4.20
2023,03,30,00,45,4.10
2023,03,30,00,46,4.10
2023,03,30,00,47,4.00
2023,03,30,00,48,4.00
2023,03,30,00,49,3.90
2023,03,30,00,50,3.90
2023,03,30,00,51,3.80
2023,03,30,00,52,3.70
2023,03,30,00,53,3.70
2023,03,30,00,54,3.60
2023,03,30,00,55,3.50
2023,03,30,00,56,3.50
2023,03,30,00,57,3.40
2023,03,30,00,58,3.40
2023,03,30,00,59,3.30
2023,03,30,01,00,3.30
2023,03,30,01,01,3.20
2023,03,30,01,02,3.20
2023,03,30,01,03,3.20
2023,03,30,01,04,3.10
2023,03,30,01,05,3.10
2023,03,30,01,06,3.10
2023,03,30,01,07,3.00
2023,03,30,01,08,3.00
2023,03,30,01,09,2.90
2023,03,30,01,10,2.90
2023,03,30,01,11,2.80
2023,03,30,01,12,2.80
2023,03,30,01,13,2.80
2023,03,30,01,14,2.80
2023,03,30,01,15,2.80
2023,03,30,01,16,2.80
2023,03,30,01,17,2.80
2023,03,30,01,18,2.70
2023,03,30,01,19,2.70
2023,03,30,01,20,2.70
2023,03,30,01,21,2.70
2023,03,30,01,22,2.60
2023,03,30,01,23,2.60
2023,03,30,01,24,2.60
2023,03,30,01,25,2.60
2023,03,30,01,26,2.50
2023,03,30,01,27,2.50
2023,03,30,01,28,2.50
2023,03,30,01,29,2.50
2023,03,30,01,30,2.50
2023,03,30,01,31,2.40
2023,03,30,01,32,2.40
2023,03,30,01,33,2.40
2023,03,30,01,34,2.40
2023,03,30,01,35,2.40
2023,03,30,01,36,2.40
2023,03,30,01,37,2.30
2023,03,30,01,38,2.20
2023,03,30,01,39,2.20
2023,03,30,01,40,2.20
2023,03,30,01,41,2.20
2023,03,30,01,42,2.10
2023,03,30,01,43,2.10
2023,03,30,01,44,2.10
2023,03,30,01,45,2.00
2023,03,30,01,46,2.00
2023,03,30,01,47,2.00
2023,03,30,01,48,2.00
2023,03,30,01,49,1.90
2023,03,30,01,50,1.90
2023,03,30,01,51,1.90
2023,03,30,01,52,1.90
2023,03,30,01,53,1.90
2023,03,30,01,54,1.90
2023,03,30,01,55,1.80
2023,03,30,01,56,1.80
2023,03,30,01,57,1.80
2023,03,30,01,58,1.80
2023,03,30,01,59,1.80
2023,03,30,02,00,1.80
2023,03,30,02,01,1.80
2023,03,30,02,02,1.80
2023,03,30,02,03,1.70
2023,03,30,02,04,1.70
2023,03,30,02,05,1.70
2023,03,30,02,06,1.70
2023,03,30,02,07,1.70
2023,03,30,02,08,1.70
2023,03,30,02,09,1.70
2023,03,30,02,10,1.70
2023,03,30,02,11,1.70
2023,03,30,02,12,1.70
2023,03,30,02,13,1.70
2023,03,30,02,14,1.70
2023,03,30,02,15,1.70
2023,03,30,02,16,1.70
2023,03,30,02,17,1.70
2023,03,30,02,18,1.70
2023,03,30,02,19,1.70
2023,03,30,02,20,1.60
2023,03,30,02,21,1.60
2023,03,30,02,22,1.60
2023,03,30,02,23,1.60
2023,03,30,02,24,1.60
2023,03,30,02,25,1.60
2023,03,30,02,26,1.50
2023,03,30,02,27,1.50
2023,03,30,02,28,1.50
2023,03,30,02,29,1.50
2023,03,30,02,30,1.40
2023,03,30,02,31,1.40
2023,03,30,02,32,1.40
2023,03,30,02,33,1.40
2023,03,30,02,34,1.40
2023,03,30,02,35,1.40
2023,03,30,02,36,1.40
2023,03,30,02,37,1.40
2023,03,30,02,38,1.40
2023,03,30,02,39,1.40
2023,03,30,02,40,1.40
2023,03,30,02,41,1.50
2023,03,30,02,42,1.50
2023,03,30,02,43,1.60
2023,03,30,02,44,1.60
2023,03,30,02,45,1.60
2023,03,30,02,46,1.70
2023,03,30,02,47,1.70
2023,03,30,02,48,1.70
2023,03,30,02,49,1.80
2023,03,30,02,50,1.80
2023,03,30,02,51,1.90
2023,03,30,02,52,1.90
2023,03,30,02,53,2.00
2023,03,30,02,54,2.00
2023,03,30,02,55,2.00
2023,03,30,02,56,2.10
2023,03,30,02,57,2.10
2023,03,30,02,58,2.10
2023,03,30,02,59,2.10
2023,03,30,03,00,2.10
2023,03,30,03,01,2.10
2023,03,30,03,02,2.10
2023,03,30,03,03,2.10
2023,03,30,03,04,2.10
2023,03,30,03,05,2.10
2023,03,30,03,06,2.10
2023,03,30,04,30,0.30
2023,03,30,04,31,0.30
2023,03,30,04,32,0.30
2023,03,30,04,33,0.30
2023,03,30,04,34,0.30
2023,03,30,04,35,0.30
2023,03,30,04,36,0.30
2023,03,30,04,37,0.30
2023,03,30,04,38,0.30
2023,03,30,04,39,0.30
2023,03,30,04,40,0.20
2023,03,30,04,41,0.20
2023,03,30,04,42,0.30
2023,03,30,04,43,0.30
2023,03,30,04,44,0.30
2023,03,30,04,45,0.30
2023,03,30,04,46,0.40
2023,03,30,04,47,0.50
2023,03,30,04,48,0.50
2023,03,30,04,49,0.60
2023,03,30,04,50,0.70
2023,03,30,04,51,0.80
2023,03,30,04,52,0.90
2023,03,30,04,53,1.00
2023,03,30,04,54,1.20
2023,03,30,04,55,1.40
2023,03,30,04,56,1.60
2023,03,30,04,57,1.60
2023,03,30,04,58,1.70
2023,03,30,04,59,2.00
2023,03,30,05,00,2.10
2023,03,30,05,01,2.20
2023,03,30,05,02,2.30
2023,03,30,05,03,2.30
2023,03,30,05,04,2.40
2023,03,30,05,05,2.50
2023,03,30,05,06,2.60
2023,03,30,05,07,2.60
2023,03,30,05,08,2.70
2023,03,30,05,09,2.80
2023,03,30,05,10,2.90
2023,03,30,05,11,3.00
2023,03,30,05,12,3.10
2023,03,30,05,13,3.20
2023,03,30,05,14,3.20
2023,03,30,05,15,3.20
2023,03,30,05,16,3.20
2023,03,30,05,17,3.20
2023,03,30,05,18,3.30
2023,03,30,05,19,3.30
2023,03,30,05,20,3.30
2023,03,30,05,21,3.40
2023,03,30,05,22,3.40
2023,03,30,05,23,3.40
2023,03,30,05,24,3.40
2023,03,30,05,25,3.40
2023,03,30,05,26,3.30
2023,03,30,05,27,3.30
2023,03,30,05,28,3.10
2023,03,30,05,29,3.00
2023,03,30,05,30,2.80
2023,03,30,05,31,2.70
2023,03,30,05,32,2.60
2023,03,30,05,33,2.50
2023,03,30,05,34,2.50
2023,03,30,05,35,2.40
2023,03,30,05,36,2.40
2023,03,30,05,37,2.30
2023,03,30,05,38,2.30
2023,03,30,05,39,2.30
2023,03,30,05,40,2.20
2023,03,30,05,41,2.20
2023,03,30,05,42,2.10
2023,03,30,05,43,2.10
2023,03,30,05,44,2.10
2023,03,30,05,45,2.00
2023,03,30,05,46,2.00
2023,03,30,05,47,1.90
2023,03,30,05,48,1.90
2023,03,30,05,49,1.90
2023,03,30,05,50,1.90
2023,03,30,05,51,1.90
2023,03,30,05,52,1.90
2023,03,30,05,53,1.90
2023,03,30,05,54,1.90
2023,03,30,05,55,1.90
2023,03,30,05,56,1.90
2023,03,30,05,57,1.90
2023,03,30,05,58,1.90
2023,03,30,05,59,1.90
2023,03,30,06,00,1.90
2023,03,30,06,01,1.90
2023,03,30,06,02,1.90
2023,03,30,06,03,1.90
2023,03,30,06,04,1.80
2023,03,30,06,05,1.80
2023,03,30,06,06,1.80
2023,03,30,06,07,1.80
2023,03,30,06,08,1.80
2023,03,30,06,09,1.80
2023,03,30,06,10,1.70
2023,03,30,06,11,1.70
2023,03,30,06,12,1.70
2023,03,30,06,13,1.70
2023,03,30,06,14,1.70
2023,03,30,06,15,1.70
2023,03,30,06,16,1.70
2023,03,30,06,17,1.70
2023,03,30,06,18,1.70
2023,03,30,06,19,1.70
2023,03,30,06,20,1.70
2023,03,30,06,21,1.70
2023,03,30,06,22,1.70
2023,03,30,06,23,1.70
2023,03,30,06,24,1.70
2023,03,30,06,25,1.70
2023,03,30,06,26,1.60
2023,03,30,06,27,1.60
2023,03,30,06,28,1.60
2023,03,30,06,29,1.60
2023,03,30,06,30,1.50
2023,03,30,06,31,1.50
2023,03,30,06,32,1.40
2023,03,30,06,33,1.40
2023,03,30,06,34,1.40
2023,03,30,06,35,1.40
2023,03,30,06,36,1.30
2023,03,30,06,37,1.30
2023,03,30,06,38,1.30
2023,03,30,06,39,1.30
2023,03,30,06,40,1.30
2023,03,30,06,41,1.20
2023,03,30,06,42,1.30
2023,03,30,06,43,1.30
2023,03,30,06,44,1.30
2023,03,30,06,45,1.30
2023,03,30,06,46,1.40
2023,03,30,06,47,1.50
2023,03,30,06,48,1.50
2023,03,30,06,49,1.60
2023,03,30,06,50,1.70
2023,03,30,06,51,1.70
2023,03,30,06,52,1.80
2023,03,30,06,53,1.80
2023,03,30,06,54,1.80
2023,03,30,06,55,1.80
2023,03,30,06,56,1.80
2023,03,30,06,57,1.80
2023,03,30,06,58,1.80
2023,03,30,06,59,1.80
2023,03,30,07,00,1.80
2023,03,30,07,01,1.80
2023,03,30,07,02,1.80
2023,03,30,07,03,1.80
2023,03,30,07,04,1.90
2023,03,30,07,05,1.80
2023,03,30,07,06,1.80
2023,03,30,07,07,1.80
2023,03,30,07,08,1.80
2023,03,30,07,09,1.90
2023,03,30,07,10,2.00
2023,03,30,07,11,2.10
2023,03,30,07,12,2.10
2023,03,30,07,13,2.10
2023,03,30,07,14,2.10
2023,03,30,07,15,2.10
2023,03,30,07,16,2.20
2023,03,30,07,17,2.40
2023,03,30,07,18,2.50
2023,03,30,07,19,2.60
2023,03,30,07,20,2.50
2023,03,30,07,21,2.50
2023,03,30,07,22,2.50
2023,03,30,07,23,2.40
2023,03,30,07,24,2.40
2023,03,30,07,25,2.40
2023,03,30,07,26,2.30
2023,03,30,07,27,2.30
2023,03,30,07,28,2.30
2023,03,30,07,29,2.30
2023,03,30,07,30,2.30
2023,03,30,07,31,2.30
2023,03,30,07,32,2.40
2023,03,30,07,33,2.50
2023,03,30,07,34,2.50
2023,03,30,07,35,2.60
2023,03,30,07,36,2.70
2023,03,30,07,37,2.80
2023,03,30,07,38,3.00
2023,03,30,07,39,3.10
2023,03,30,07,40,3.10
2023,03,30,07,41,3.20
2023,03,30,07,42,3.20
2023,03,30,07,43,3.20
2023,03,30,07,44,3.10
2023,03,30,07,45,3.10
2023,03,30,07,46,3.10
2023,03,30,07,47,3.10
2023,03,30,07,48,3.10
2023,03,30,07,49,3.10
2023,03,30,07,50,3.00
2023,03,30,07,51,2.90
2023,03,30,07,52,2.90
2023,03,30,07,53,2.90
2023,03,30,07,54,2.80
2023,03,30,07,55,2.80
2023,03,30,07,56,2.80
2023,03,30,07,57,2.70
2023,03,30,07,58,2.70
2023,03,30,07,59,2.70
2023,03,30,08,00,2.70
2023,03,30,08,01,2.70
2023,03,30,08,02,2.60
2023,03,30,08,03,2.60
2023,03,30,08,04,2.60
2023,03,30,08,05,2.60
2023,03,30,08,06,2.60
2023,03,30,08,07,2.60
2023,03,30,08,08,2.60
2023,03,30,08,09,2.60
2023,03,30,08,10,2.60
2023,03,30,08,11,2.70
2023,03,30,08,12,2.70
2023,03,30,08,13,2.70
2023,03,30,08,14,2.80
2023,03,30,08,15,2.80
2023,03,30,08,16,2.80
2023,03,30,08,17,2.80
2023,03,30,08,18,2.90
2023,03,30,08,19,3.00
2023,03,30,08,20,3.00
2023,03,30,08,21,3.10
2023,03,30,08,22,3.20
2023,03,30,08,23,3.20
2023,03,30,08,24,3.30
2023,03,30,08,25,3.40
2023,03,30,08,26,3.40
2023,03,30,08,27,3.50
2023,03,30,08,28,3.60
2023,03,30,08,29,3.60
2023,03,30,08,30,3.70
2023,03,30,08,31,3.70
2023,03,30,08,32,3.70
2023,03,30,08,33,3.70
2023,03,30,08,34,3.80
2023,03,30,08,35,3.90
2023,03,30,08,36,4.00
2023,03,30,08,37,4.10
2023,03,30,08,38,4.20
2023,03,30,08,39,4.20
2023,03,30,08,40,4.30
2023,03,30,08,41,4.40
2023,03,30,08,42,4.50
2023,03,30,08,43,4.50
2023,03,30,08,44,4.50
2023,03,30,08,45,4.50
2023,03,30,08,46,4.50
2023,03,30,08,47,4.50
2023,03,30,08,48,4.50
2023,03,30,08,49,4.50
2023,03,30,08,50,4.80
2023,03,30,08,51,5.20
2023,03,30,08,52,5.20
2023,03,30,08,53,5.30
2023,03,30,08,54,5.30
2023,03,30,08,55,5.40
2023,03,30,08,56,5.40
2023,03,30,08,57,5.40
2023,03,30,08,58,5.40
2023,03,30,08,59,5.50
2023,03,30,09,00,5.60
2023,03,30,09,01,5.60
2023,03,30,09,02,5.70
2023,03,30,09,03,5.70
2023,03,30,09,04,5.70
2023,03,30,09,05,5.80
2023,03,30,09,06,5.80
2023,03,30,09,07,5.90
2023,03,30,09,08,5.90
2023,03,30,09,09,5.90
2023,03,30,09,10,6.00
2023,03,30,09,11,6.10
2023,03,30,09,12,6.10
2023,03,30,09,13,6.10
2023,03,30,09,14,6.20
2023,03,30,09,15,6.20
2023,03,30,09,16,6.20
2023,03,30,09,17,6.20
2023,03,30,09,18,6.20
2023,03,30,09,19,6.30
2023,03,30,09,20,6.30
2023,03,30,09,21,6.30
2023,03,30,09,22,6.30
2023,03,30,09,23,6.30
2023,03,30,09,24,6.40
2023,03,30,09,25,6.30
2023,03,30,09,26,6.40
2023,03,30,09,27,6.40
2023,03,30,09,28,6.40
2023,03,30,09,29,6.40
2023,03,30,09,30,6.40
2023,03,30,09,31,6.40
2023,03,30,09,32,6.40
2023,03,30,09,33,6.40
2023,03,30,09,34,6.40
2023,03,30,09,35,6.50
2023,03,30,09,36,6.50
2023,03,30,09,37,6.60
2023,03,30,09,38,6.60
2023,03,30,09,39,6.60
2023,03,30,09,40,6.70
2023,03,30,09,41,6.70
2023,03,30,09,42,6.70
2023,03,30,09,43,6.70
2023,03,30,09,44,6.80
2023,03,30,09,45,6.80
2023,03,30,09,46,6.80
2023,03,30,09,47,6.90
2023,03,30,09,48,6.90
2023,03,30,09,49,7.00
2023,03,30,09,50,7.00
2023,03,30,09,51,7.10
2023,03,30,09,52,7.10
2023,03,30,09,53,7.10
2023,03,30,09,54,7.10
2023,03,30,09,55,7.10
2023,03,30,09,56,7.20
2023,03,30,09,57,7.20
2023,03,30,09,58,7.20
2023,03,30,09,59,7.20
2023,03,30,10,00,7.20
2023,03,30,10,01,7.20
2023,03,30,10,02,7.30
2023,03,30,10,03,7.30
2023,03,30,10,04,7.30
2023,03,30,10,05,7.40
2023,03,30,10,06,7.40
2023,03,30,10,07,7.50
2023,03,30,10,08,7.60
2023,03,30,10,09,7.60
2023,03,30,10,10,7.70
2023,03,30,10,11,7.80
2023,03,30,10,12,7.90
2023,03,30,10,13,7.90
2023,03,30,10,14,7.90
2023,03,30,10,15,8.00
2023,03,30,10,16,8.00
2023,03,30,10,17,8.10
2023,03,30,10,18,8.10
2023,03,30,10,19,8.10
2023,03,30,10,20,8.20
2023,03,30,10,21,8.20
2023,03,30,10,22,8.20
2023,03,30,10,23,8.20
2023,03,30,10,24,8.20
2023,03,30,10,25,8.30
2023,03,30,10,26,8.30
2023,03,30,10,27,8.30
2023,03,30,10,28,8.40
2023,03,30,10,29,8.40
2023,03,30,10,30,8.50
2023,03,30,10,31,8.50
2023,03,30,10,32,8.50
2023,03,30,10,33,8.40
2023,03,30,10,34,8.50
2023,03,30,10,35,8.50
2023,03,30,10,36,8.50
2023,03,30,10,37,8.50
2023,03,30,10,38,8.50
2023,03,30,10,39,8.50
2023,03,30,10,40,8.60
2023,03,30,10,41,8.50
2023,03,30,10,42,8.50
2023,03,30,10,43,8.60
2023,03,30,10,44,8.60
2023,03,30,10,45,8.70
2023,03,30,10,46,8.80
2023,03,30,10,47,8.80
2023,03,30,10,48,8.80
2023,03,30,10,49,8.80
2023,03,30,10,50,8.80
2023,03,30,10,51,8.80
2023,03,30,10,52,8.80
2023,03,30,10,53,8.90
2023,03,30,10,54,8.90
2023,03,30,10,55,8.90
2023,03,30,10,56,9.00
2023,03,30,10,57,9.00
2023,03,30,10,58,9.10
2023,03,30,10,59,9.10
2023,03,30,11,00,9.20
2023,03,30,11,01,9.20
2023,03,30,11,02,9.30
2023,03,30,11,03,9.30
2023,03,30,11,04,9.40
2023,03,30,11,05,9.40
2023,03,30,11,06,9.40
2023,03,30,11,07,9.50
2023,03,30,11,08,9.50
2023,03,30,11,09,9.60
2023,03,30,11,10,9.60
2023,03,30,11,11,9.70
2023,03,30,11,12,9.70
2023,03,30,11,13,9.70
2023,03,30,11,14,9.70
2023,03,30,11,15,9.70
2023,03,30,11,16,9.70
2023,03,30,11,17,9.70
2023,03,30,11,18,9.60
2023,03,30,11,19,9.60
2023,03,30,11,20,9.70
2023,03,30,11,21,9.70
2023,03,30,11,22,9.80
2023,03,30,11,23,9.80
2023,03,30,11,24,9.80
2023,03,30,11,25,9.90
2023,03,30,11,26,9.90
2023,03,30,11,27,10.00
2023,03,30,11,28,10.10
2023,03,30,11,29,10.10
2023,03,30,11,30,10.20
2023,03,30,11,31,10.40
2023,03,30,11,32,10.50
2023,03,30,11,33,10.50
2023,03,30,11,34,10.60
2023,03,30,11,35,10.70
2023,03,30,11,36,10.70
2023,03,30,11,37,10.70
2023,03,30,11,38,10.80
2023,03,30,11,39,10.60
2023,03,30,11,40,10.50
2023,03,30,11,41,10.50
2023,03,30,11,42,10.50
2023,03,30,11,43,10.50
2023,03,30,11,44,10.60
2023,03,30,11,45,10.60
2023,03,30,11,46,10.70
2023,03,30,11,47,10.70
2023,03,30,11,48,10.70
2023,03,30,11,49,10.80
2023,03,30,11,50,10.90
2023,03,30,11,51,11.00
2023,03,30,11,52,10.90
2023,03,30,11,53,10.90
2023,03,30,11,54,10.90
2023,03,30,11,55,10.90
2023,03,30,11,56,10.90
2023,03,30,11,57,10.80
2023,03,30,11,58,10.90
2023,03,30,11,59,10.90
2023,03,30,12,00,10.90
2023,03,30,12,01,10.80
2023,03,30,12,02,10.80
2023,03,30,12,03,10.90
2023,03,30,12,04,10.90
2023,03,30,12,05,11.00
2023,03,30,12,06,11.10
2023,03,30,12,07,11.10
2023,03,30,12,08,11.10
2023,03,30,12,09,11.00
2023,03,30,12,10,10.90
2023,03,30,12,11,10.90
2023,03,30,12,12,10.90
2023,03,30,12,13,11.00
2023,03,30,12,14,11.10
2023,03,30,12,15,11.20
2023,03,30,12,16,11.30
2023,03,30,12,17,11.30
2023,03,30,12,18,11.40
2023,03,30,12,19,11.50
2023,03,30,12,20,11.40
2023,03,30,12,21,11.30
2023,03,30,12,22,11.20
2023,03,30,12,23,11.20
2023,03,30,12,24,11.30
2023,03,30,12,25,11.30
2023,03,30,12,26,11.40
2023,03,30,12,27,11.40
2023,03,30,12,28,11.50
2023,03,30,12,29,11.50
2023,03,30,12,30,11.50
2023,03,30,12,31,11.50
2023,03,30,12,32,11.50
2023,03,30,12,33,11.60
2023,03,30,12,34,11.60
2023,03,30,12,35,11.60
2023,03,30,12,36,11.70
2023,03,30,12,37,11.90
2023,03,30,12,38,12.00
2023,03,30,12,39,12.00
2023,03,30,12,40,12.10
2023,03,30,12,41,12.20
2023,03,30,12,42,12.30
2023,03,30,12,43,12.30
2023,03,30,12,44,12.30
2023,03,30,12,45,12.10
2023,03,30,12,46,12.00
2023,03,30,12,47,12.00
2023,03,30,12,48,11.90
2023,03,30,12,49,12.00
2023,03,30,12,50,12.00
2023,03,30,12,51,12.10
2023,03,30,12,52,12.10
2023,03,30,12,53,12.10
2023,03,30,12,54,12.10
2023,03,30,12,55,12.10
2023,03,30,12,56,12.10
2023,03,30,12,57,12.20
2023,03,30,12,58,12.30
2023,03,30,12,59,12.30
2023,03,30,13,00,12.30
2023,03,30,13,01,12.40
2023,03,30,13,02,12.40
2023,03,30,13,03,12.40
2023,03,30,13,04,12.30
2023,03,30,13,05,12.10
2023,03,30,13,06,12.00
2023,03,30,13,07,11.90
2023,03,30,13,08,11.80
2023,03,30,13,09,11.80
2023,03,30,13,10,11.70
2023,03,30,13,11,11.70
2023,03,30,13,12,11.70
2023,03,30,13,13,11.70
2023,03,30,13,14,11.80
2023,03,30,13,15,11.90
2023,03,30,13,16,12.00
2023,03,30,13,17,12.10
2023,03,30,13,18,12.20
2023,03,30,13,19,12.40
2023,03,30,13,20,12.50
2023,03,30,13,21,12.50
2023,03,30,13,22,12.40
2023,03,30,13,23,12.40
2023,03,30,13,24,12.30
2023,03,30,13,25,12.30
2023,03,30,13,26,12.20
2023,03,30,13,27,12.20
2023,03,30,13,28,12.30
2023,03,30,13,29,12.30
2023,03,30,13,30,12.30
2023,03,30,13,31,12.30
2023,03,30,13,32,12.30
2023,03,30,13,33,12.30
2023,03,30,13,34,12.40
2023,03,30,13,35,12.40
2023,03,30,13,36,12.50
2023,03,30,13,37,12.60
2023,03,30,13,38,12.70
2023,03,30,13,39,12.70
2023,03,30,13,40,12.60
2023,03,30,13,41,12.50
2023,03,30,13,42,12.40
2023,03,30,13,43,12.30
2023,03,30,13,44,12.20
2023,03,30,13,45,12.10
2023,03,30,13,46,12.10
2023,03,30,13,47,12.20
2023,03,30,13,48,12.30
2023,03,30,13,49,12.40
2023,03,30,13,50,12.50
2023,03,30,13,51,12.60
2023,03,30,13,52,12.60
2023,03,30,13,53,12.60
2023,03,30,13,54,12.60
2023,03,30,13,55,12.50
2023,03,30,13,56,12.40
2023,03,30,13,57,12.40
2023,03,30,13,58,12.40
2023,03,30,13,59,12.40
2023,03,30,14,00,12.40
2023,03,30,14,01,12.40
2023,03,30,14,02,12.40
2023,03,30,14,03,12.40
2023,03,30,14,04,12.40
2023,03,30,14,05,12.30
2023,03,30,14,06,12.30
2023,03,30,14,07,12.20
2023,03,30,14,08,12.10
2023,03,30,14,09,12.00
2023,03,30,14,10,11.90
2023,03,30,14,11,11.80
2023,03,30,14,12,11.80
2023,03,30,14,13,11.80
2023,03,30,14,14,11.80
2023,03,30,14,15,11.80
2023,03,30,14,16,11.90
2023,03,30,14,17,11.90
2023,03,30,14,18,12.00
2023,03,30,14,19,12.00
2023,03,30,14,20,12.00
2023,03,30,14,21,12.00
2023,03,30,14,22,12.10
2023,03,30,14,23,12.10
2023,03,30,14,24,12.10
2023,03,30,14,25,12.10
2023,03,30,14,26,12.10
2023,03,30,14,27,12.10
2023,03,30,14,28,12.00
2023,03,30,14,29,12.00
2023,03,30,14,30,12.00
2023,03,30,14,31,12.10
2023,03,30,14,32,12.10
2023,03,30,14,33,12.10
2023,03,30,14,34,12.10
2023,03,30,14,35,12.10
2023,03,30,14,36,12.10
2023,03,30,14,37,12.20
2023,03,30,14,38,12.20
2023,03,30,14,39,12.20
2023,03,30,14,40,12.20
2023,03,30,14,41,12.20
2023,03,30,14,42,12.20
2023,03,30,14,43,12.20
2023,03,30,14,44,12.30
2023,03,30,14,45,12.30
2023,03,30,14,46,12.30
2023,03,30,14,47,12.30
2023,03,30,14,48,12.40
2023,03,30,14,49,12.40
2023,03,30,14,50,12.40
2023,03,30,14,51,12.50
2023,03,30,14,52,12.50
2023,03,30,14,53,12.50
2023,03,30,14,54,12.40
2023,03,30,14,55,12.30
2023,03,30,14,56,12.30
2023,03,30,14,57,12.30
2023,03,30,14,58,12.20
2023,03,30,14,59,12.20
2023,03,30,15,00,12.30
2023,03,30,15,01,12.20
2023,03,30,15,02,12.20
2023,03,30,15,03,12.20
2023,03,30,15,04,12.30
2023,03,30,15,05,12.40
2023,03,30,15,06,12.40
2023,03,30,15,07,12.50
2023,03,30,15,08,12.40
2023,03,30,15,09,12.30
2023,03,30,15,10,12.20
2023,03,30,15,11,12.10
2023,03,30,15,12,12.00
2023,03,30,15,13,11.90
2023,03,30,15,14,11.80
2023,03,30,15,15,11.80
2023,03,30,15,16,11.70
2023,03,30,15,17,11.70
2023,03,30,15,18,11.70
2023,03,30,15,19,11.70
2023,03,30,15,20,11.70
2023,03,30,15,21,11.80
2023,03,30,15,22,11.80
2023,03,30,15,23,11.90
2023,03,30,15,24,12.00
2023,03,30,15,25,12.10
2023,03,30,15,26,12.20
2023,03,30,15,27,12.10
2023,03,30,15,28,12.10
2023,03,30,15,29,12.10
2023,03,30,15,30,12.10
2023,03,30,15,31,12.10
2023,03,30,15,32,12.20
2023,03,30,15,33,12.30
2023,03,30,15,34,12.30
2023,03,30,15,35,12.40
2023,03,30,15,36,12.40
2023,03,30,15,37,12.40
2023,03,30,15,38,12.40
2023,03,30,15,39,12.30
2023,03,30,15,40,12.30
2023,03,30,15,41,12.30
2023,03,30,15,42,12.20
2023,03,30,15,43,12.10
2023,03,30,15,44,11.90
2023,03,30,15,45,11.80
2023,03,30,15,46,11.80
2023,03,30,15,47,11.80
2023,03,30,15,48,11.80
2023,03,30,15,49,11.70
2023,03,30,15,50,11.70
2023,03,30,15,51,11.70
2023,03,30,15,52,11.70
2023,03,30,15,53,11.80
2023,03,30,15,54,11.80
2023,03,30,15,55,11.70
2023,03,30,15,56,11.70
2023,03,30,15,57,11.60
2023,03,30,15,58,11.60
2023,03,30,15,59,11.60
2023,03,30,16,00,11.60
2023,03,30,16,01,11.60
2023,03,30,16,02,11.60
2023,03,30,16,03,11.60
2023,03,30,16,04,11.60
2023,03,30,16,05,11.60
2023,03,30,16,06,11.60
2023,03,30,16,07,11.70
2023,03,30,16,08,11.70
2023,03,30,16,09,11.60
2023,03,30,16,10,11.60
2023,03,30,16,11,11.60
2023,03,30,16,12,11.50
2023,03,30,16,13,11.50
2023,03,30,16,14,11.50
2023,03,30,16,15,11.40
2023,03,30,16,16,11.40
2023,03,30,16,17,11.40
2023,03,30,16,18,11.30
2023,03,30,16,19,11.30
2023,03,30,16,20,11.30
2023,03,30,16,21,11.40
2023,03,30,16,22,11.40
2023,03,30,16,23,11.50
2023,03,30,16,24,11.50
2023,03,30,16,25,11.40
2023,03,30,16,26,11.30
2023,03,30,16,27,11.30
2023,03,30,16,28,11.30
2023,03,30,16,29,11.30
2023,03,30,16,30,11.20
2023,03,30,16,31,11.10
2023,03,30,16,32,11.10
2023,03,30,16,33,11.10
2023,03,30,16,34,11.10
2023,03,30,16,35,11.10
2023,03,30,16,36,11.10
2023,03,30,16,37,11.10
2023,03,30,16,38,11.10
2023,03,30,16,39,11.20
2023,03,30,16,40,11.20
2023,03,30,16,41,11.20
2023,03,30,16,42,11.20
2023,03,30,16,43,11.10
2023,03,30,16,44,11.10
2023,03,30,16,45,11.10
2023,03,30,16,46,11.10
2023,03,30,16,47,11.10
2023,03,30,16,48,11.10
2023,03,30,16,49,11.10
2023,03,30,16,50,11.20
2023,03,30,16,51,11.10
2023,03,30,16,52,11.10
2023,03,30,16,53,11.20
2023,03,30,16,54,11.20
2023,03,30,16,55,11.20
2023,03,30,16,56,11.10
2023,03,30,16,57,11.10
2023,03,30,16,58,11.00
2023,03,30,16,59,11.00
2023,03,30,17,00,11.00
2023,03,30,17,01,11.00
2023,03,30,17,02,11.00
2023,03,30,17,03,11.00
2023,03,30,17,04,11.00
2023,03,30,17,05,11.00
2023,03,30,17,06,11.10
2023,03,30,17,07,11.10
2023,03,30,17,08,11.10
2023,03,30,17,09,11.10
2023,03,30,17,10,11.10
2023,03,30,17,11,11.00
2023,03,30,17,12,10.90
2023,03,30,17,13,10.90
2023,03,30,17,14,10.90
2023,03,30,17,15,10.80
2023,03,30,17,16,10.80
2023,03,30,17,17,10.70
2023,03,30,17,18,10.80
2023,03,30,17,19,10.80
2023,03,30,17,20,10.80
2023,03,30,17,21,10.80
2023,03,30,17,22,10.80
2023,03,30,17,23,10.80
2023,03,30,17,24,10.70
2023,03,30,17,25,10.70
2023,03,30,17,26,10.70
2023,03,30,17,27,10.60
2023,03,30,17,28,10.60
2023,03,30,17,29,10.60
2023,03,30,17,30,10.60
2023,03,30,17,31,10.60
2023,03,30,17,32,10.50
2023,03,30,17,33,10.40
2023,03,30,17,34,10.40
2023,03,30,17,35,10.40
2023,03,30,17,36,10.30
2023,03,30,17,37,10.30
2023,03,30,17,38,10.30
2023,03,30,17,39,10.20
2023,03,30,17,40,10.20
2023,03,30,17,41,10.10
2023,03,30,17,42,10.10
2023,03,30,17,43,10.00
2023,03,30,17,44,9.90
2023,03,30,17,45,9.90
2023,03,30,17,46,9.80
2023,03,30,17,47,9.80
2023,03,30,17,48,9.80
2023,03,30,17,49,9.80
2023,03,30,17,50,9.80
2023,03,30,17,51,9.70
2023,03,30,17,52,9.70
2023,03,30,17,53,9.70
2023,03,30,17,54,9.60
2023,03,30,17,55,9.60
2023,03,30,17,56,9.60
2023,03,30,17,57,9.60
2023,03,30,17,58,9.60
2023,03,30,17,59,9.50
2023,03,30,18,00,9.50
2023,03,30,18,01,9.40
2023,03,30,18,02,9.40
2023,03,30,18,03,9.40
2023,03,30,18,04,9.30
2023,03,30,18,05,9.30
2023,03,30,18,06,9.30
2023,03,30,18,07,9.20
2023,03,30,18,08,9.20
2023,03,30,18,09,9.10
2023,03,30,18,10,9.10
2023,03,30,18,11,9.10
2023,03,30,18,12,9.10
2023,03,30,18,13,9.10
2023,03,30,18,14,9.00
2023,03,30,18,15,9.00
2023,03,30,18,16,9.10
2023,03,30,18,17,9.10
2023,03,30,18,18,9.00
2023,03,30,18,19,9.00
2023,03,30,18,20,9.00
2023,03,30,18,21,9.00
2023,03,30,18,22,9.00
2023,03,30,18,23,9.00
2023,03,30,18,24,9.00
2023,03,30,18,25,9.00
2023,03,30,18,26,9.00
2023,03,30,18,27,8.90
2023,03,30,18,28,8.90
2023,03,30,18,29,8.90
2023,03,30,18,30,8.80
2023,03,30,18,31,8.80
2023,03,30,18,32,8.80
2023,03,30,18,33,8.70
2023,03,30,18,34,8.70
2023,03,30,18,35,8.60
2023,03,30,18,36,8.60
2023,03,30,18,37,8.60
2023,03,30,18,38,8.60
2023,03,30,18,39,8.60
2023,03,30,18,40,8.50
2023,03,30,18,41,8.60
2023,03,30,18,42,8.50
2023,03,30,18,43,8.50
2023,03,30,18,44,8.50
2023,03,30,18,45,8.40
2023,03,30,18,46,8.40
2023,03,30,18,47,8.40
2023,03,30,18,48,8.30
2023,03,30,18,49,8.30
2023,03,30,18,50,8.30
2023,03,30,18,51,8.30
2023,03,30,18,52,8.30
2023,03,30,18,53,8.20
2023,03,30,18,54,8.20
2023,03,30,18,55,8.10
2023,03,30,18,56,8.10
2023,03,30,18,57,8.10
2023,03,30,18,58,8.00
2023,03,30,18,59,8.00
2023,03,30,19,00,8.00
2023,03,30,19,01,8.00
2023,03,30,19,02,7.90
2023,03,30,19,03,7.90
2023,03,30,19,04,7.90
2023,03,30,19,05,7.90
2023,03,30,19,06,7.80
2023,03,30,19,07,7.80
2023,03,30,19,08,7.80
2023,03,30,19,09,7.80
2023,03,30,19,10,7.80
2023,03,30,19,11,7.70
2023,03,30,19,12,7.70